FW9909 Weather Reports


Display with metric or nautical units.
time (UTC)temp
F
wind
direction
speed
MPH
gust
MPH
rain 1hr
in
rain 24hr
in
rain mn
in
humidity
%
barometer
mb
20260507185537 67 277 3.0 7.0 0.00 0.00 0.00 37 1016.3
20260507184515 67 257 4.0 10.0 0.00 0.00 0.00 38 1016.4
20260507183534 66 210 3.0 6.0 0.00 0.00 0.00 40 1016.5
20260507182532 65 246 5.0 9.0 0.00 0.00 0.00 38 1016.5
20260507181530 65 238 5.0 10.0 0.00 0.00 0.00 37 1016.8
20260507180528 65 212 4.0 9.0 0.00 0.00 0.00 40 1016.9
20260507175546 65 243 3.0 7.0 0.00 0.00 0.00 40 1017.0
20260507174524 65 252 4.0 9.0 0.00 0.00 0.00 39 1017.3
20260507173602 65 237 3.0 9.0 0.00 0.00 0.00 38 1017.5
20260507172521 64 235 2.0 8.0 0.00 0.00 0.00 40 1017.7
20260507171539 64 237 4.0 8.0 0.00 0.00 0.00 39 1017.8
20260507170517 64 247 5.0 10.0 0.00 0.00 0.00 39 1017.8
20260507165515 63 255 2.0 4.0 0.00 0.00 0.00 39 1017.9
20260507164533 63 281 4.0 6.0 0.00 0.00 0.00 39 1018.0
20260507163532 63 300 3.0 6.0 0.00 0.00 0.00 37 1018.1
20260507162529 63 314 3.0 6.0 0.00 0.00 0.00 39 1018.2
20260507161548 62 290 3.0 7.0 0.00 0.00 0.00 38 1018.1
20260507160526 62 257 2.0 5.0 0.00 0.00 0.00 38 1018.4
20260507155524 63 230 3.0 6.0 0.00 0.00 0.00 41 1018.4
20260507154542 61 235 2.0 6.0 0.00 0.00 0.00 42 1018.6
20260507153520 62 232 4.0 7.0 0.00 0.00 0.00 40 1018.5
20260507152518 61 271 2.0 8.0 0.00 0.00 0.00 41 1018.4
20260507151516 61 217 2.0 7.0 0.00 0.00 0.00 47 1018.4
20260507150535 59 213 2.0 5.0 0.00 0.00 0.00 46 1018.4
20260507145533 59 219 3.0 5.0 0.00 0.00 0.00 46 1018.4
20260507144531 58 190 3.0 6.0 0.00 0.00 0.00 48 1018.5
20260507143529 58 200 3.0 7.0 0.00 0.00 0.00 46 1018.8
20260507142527 57 235 4.0 7.0 0.00 0.00 0.00 48 1018.8
20260507141525 56 202 2.0 7.0 0.00 0.00 0.00 53 1018.7
20260507140523 55 222 3.0 5.0 0.00 0.00 0.00 55 1018.6
20260507135522 55 244 2.0 5.0 0.00 0.00 0.00 54 1018.8
20260507134520 55 211 2.0 4.0 0.00 0.00 0.00 57 1018.9
20260507133518 54 273 2.0 4.0 0.00 0.00 0.00 59 1018.8
20260507132556 53 222 1.0 3.0 0.00 0.00 0.00 62 1018.8
20260507131534 51 204 1.0 4.0 0.00 0.00 0.00 68 1018.8
20260507130612 50 291 1.0 3.0 0.00 0.00 0.00 68 1018.7
20260507125530 48 268 1.0 3.0 0.00 0.00 0.00 72 1018.8
20260507124549 47 173 2.0 5.0 0.00 0.00 0.00 77 1018.7
20260507123527 45 210 2.0 5.0 0.00 0.00 0.00 82 1018.5
20260507122525 43 346 2.0 4.0 0.00 0.00 0.00 86 1018.6
20260507121523 42 306 0.0 2.0 0.00 0.00 0.00 88 1018.5
20260507120542 42 60 0.0 2.0 0.00 0.00 0.00 89 1018.4
20260507115519 42 0.0 2.0 0.00 0.00 0.00 90 1018.5
20260507114518 42 91 1.0 2.0 0.00 0.00 0.00 91 1018.1
20260507113516 42 79 3.0 5.0 0.00 0.00 0.00 91 1018.1
20260507112534 41 59 2.0 4.0 0.00 0.00 0.00 90 1018.0
20260507111552 41 93 2.0 4.0 0.00 0.00 0.00 89 1017.8
20260507110530 41 80 2.0 3.0 0.00 0.00 0.00 87 1017.7
20260507105549 42 97 2.0 4.0 0.00 0.00 0.00 86 1017.7
20260507104526 42 122 3.0 5.0 0.00 0.00 0.00 86 1017.7
20260507103544 41 49 2.0 4.0 0.00 0.00 0.00 87 1017.9
20260507102543 41 95 1.0 5.0 0.00 0.00 0.00 88 1017.7
20260507101521 41 5 3.0 5.0 0.00 0.00 0.00 89 1017.5
20260507100519 40 99 2.0 3.0 0.00 0.00 0.00 88 1017.6
20260507095517 39 104 1.0 4.0 0.00 0.00 0.00 89 1017.9
20260507094535 39 74 1.0 2.0 0.00 0.00 0.00 90 1017.9
20260507093534 38 75 0.0 2.0 0.00 0.00 0.00 89 1017.8
20260507092532 39 101 1.0 2.0 0.00 0.00 0.00 88 1017.8
20260507091550 38 108 2.0 2.0 0.00 0.00 0.00 88 1017.8
20260507090528 39 71 1.0 2.0 0.00 0.00 0.00 87 1017.7
20260507085526 39 83 1.0 2.0 0.00 0.00 0.00 86 1017.7
20260507084524 39 80 1.0 2.0 0.00 0.00 0.00 85 1017.5
20260507083523 39 65 1.0 2.0 0.00 0.00 0.00 84 1017.5
20260507082521 40 68 2.0 2.0 0.00 0.00 0.00 82 1017.5
20260507081519 40 62 2.0 2.0 0.00 0.00 0.00 80 1017.5
20260507080517 41 112 2.0 3.0 0.00 0.00 0.00 79 1017.6
20260507075555 41 88 1.0 2.0 0.00 0.00 0.00 79 1017.7
20260507074533 41 84 2.0 2.0 0.00 0.00 0.00 77 1017.9
20260507073532 41 86 1.0 2.0 0.00 0.00 0.00 76 1017.9
20260507072529 41 68 2.0 2.0 0.00 0.00 0.00 75 1018.1
20260507071608 42 87 2.0 2.0 0.00 0.00 0.00 74 1018.0
20260507070526 42 69 2.0 2.0 0.00 0.00 0.00 72 1018.2
20260507065524 43 67 2.0 2.0 0.00 0.00 0.00 71 1018.2
20260507064522 43 68 2.0 2.0 0.00 0.00 0.00 68 1018.1
20260507063520 44 59 2.0 2.0 0.00 0.00 0.00 68 1018.0
20260507062518 45 72 2.0 2.0 0.00 0.00 0.00 65 1018.0
20260507061516 46 94 2.0 3.0 0.00 0.00 0.00 64 1018.1
20260507060535 47 82 2.0 4.0 0.00 0.00 0.00 61 1018.2
20260507055533 47 68 2.0 3.0 0.00 0.00 0.00 59 1018.1
20260507054551 48 70 2.0 4.0 0.00 0.00 0.00 59 1018.2
20260507053549 48 58 2.0 3.0 0.00 0.00 0.00 58 1018.1
20260507052527 48 67 2.0 4.0 0.00 0.00 0.00 57 1018.1
20260507051526 49 67 3.0 5.0 0.00 0.00 0.00 56 1018.0
20260507050523 49 65 4.0 6.0 0.00 0.00 0.00 55 1018.0
20260507045522 49 64 3.0 5.0 0.00 0.00 0.00 55 1017.8
20260507044520 50 64 3.0 4.0 0.00 0.00 0.00 55 1017.8
20260507043518 50 59 3.0 6.0 0.00 0.00 0.00 54 1017.8
20260507042516 51 65 4.0 7.0 0.00 0.00 0.00 54 1017.7
20260507041634 51 64 4.0 7.0 0.00 0.00 0.00 54 1017.8
20260507040552 51 55 4.0 6.0 0.00 0.00 0.00 53 1017.8
20260507035531 51 63 4.0 6.0 0.00 0.00 0.00 52 1017.7
20260507034549 52 60 4.0 6.0 0.00 0.00 0.00 52 1017.7
20260507033527 52 54 3.0 6.0 0.00 0.00 0.00 52 1017.6
20260507032525 52 66 3.0 5.0 0.00 0.00 0.00 53 1017.6
20260507031523 52 64 3.0 5.0 0.00 0.00 0.00 52 1017.5
20260507030541 53 56 3.0 5.0 0.00 0.00 0.00 50 1017.4
20260507025519 53 52 4.0 8.0 0.00 0.00 0.00 50 1017.2
20260507024537 53 62 3.0 6.0 0.00 0.01 0.00 49 1017.3
20260507023516 54 44 3.0 7.0 0.00 0.01 0.00 49 1017.3
20260507022534 54 54 4.0 6.0 0.00 0.01 0.00 47 1017.2
20260507021532 55 68 4.0 6.0 0.00 0.01 0.00 46 1017.2
20260507020530 55 60 3.0 6.0 0.00 0.01 0.00 46 1017.0
20260507015529 56 61 3.0 6.0 0.00 0.01 0.00 46 1016.9
20260507014526 56 70 3.0 5.0 0.00 0.01 0.00 45 1016.8
20260507013525 56 73 4.0 9.0 0.00 0.01 0.00 44 1016.6
20260507012523 56 58 4.0 7.0 0.00 0.01 0.00 45 1016.5
20260507011521 57 74 4.0 7.0 0.00 0.01 0.00 44 1016.6
20260507010519 57 47 3.0 6.0 0.00 0.01 0.00 44 1016.4
20260507005517 57 63 4.0 6.0 0.00 0.01 0.00 44 1016.3
20260507004515 58 66 5.0 7.0 0.00 0.01 0.00 44 1016.2
20260507003533 58 58 4.0 8.0 0.00 0.01 0.00 44 1016.2
20260507002531 58 57 4.0 8.0 0.00 0.01 0.00 43 1016.0
20260507001530 59 67 4.0 10.0 0.00 0.01 0.00 43 1016.0
20260507000548 59 58 3.0 11.0 0.00 0.01 0.00 43 1015.7
20260506235526 59 58 5.0 11.0 0.00 0.01 0.00 44 1015.5
20260506234524 59 52 4.0 8.0 0.00 0.01 0.00 43 1015.3
20260506233522 60 65 4.0 8.0 0.00 0.01 0.00 41 1015.2
20260506232521 60 58 7.0 15.0 0.00 0.01 0.00 41 1015.0
20260506231519 60 59 5.0 9.0 0.00 0.01 0.00 41 1015.2
20260506230517 61 57 5.0 10.0 0.00 0.01 0.00 40 1015.2
20260506225535 61 59 5.0 9.0 0.00 0.01 0.00 40 1015.2
20260506224533 62 52 4.0 12.0 0.00 0.01 0.00 40 1015.1
20260506223531 63 39 4.0 9.0 0.00 0.02 0.00 38 1015.1
20260506222530 62 51 5.0 11.0 0.00 0.02 0.00 39 1015.1
20260506221528 62 63 5.0 9.0 0.00 0.02 0.00 40 1015.0
20260506220525 63 46 6.0 15.0 0.00 0.02 0.00 39 1015.1
20260506215524 62 47 5.0 11.0 0.00 0.02 0.00 40 1015.1
20260506214522 63 55 6.0 9.0 0.00 0.02 0.00 39 1015.1
20260506213520 62 58 3.0 8.0 0.00 0.02 0.00 41 1015.4
20260506212518 63 55 5.0 9.0 0.00 0.02 0.00 40 1015.5
20260506211516 62 59 4.0 8.0 0.00 0.02 0.00 41 1015.6
20260506210535 62 59 4.0 9.0 0.00 0.02 0.00 41 1015.8
20260506205533 63 49 4.0 10.0 0.00 0.02 0.00 42 1015.7
20260506204531 62 63 4.0 9.0 0.00 0.02 0.00 43 1015.6
20260506203529 62 58 5.0 15.0 0.00 0.02 0.00 42 1015.8
20260506202547 63 35 5.0 9.0 0.00 0.02 0.00 42 1015.7
20260506201545 62 20 5.0 10.0 0.00 0.02 0.00 42 1015.9
20260506200523 61 53 4.0 7.0 0.00 0.02 0.00 44 1016.2
20260506195542 61 47 5.0 10.0 0.00 0.02 0.00 44 1016.2
20260506194540 62 55 4.0 9.0 0.00 0.02 0.00 45 1016.2
20260506193518 62 61 6.0 10.0 0.00 0.02 0.00 44 1016.6
20260506192536 61 65 6.0 11.0 0.00 0.02 0.00 45 1016.6
20260506191534 61 55 5.0 7.0 0.00 0.02 0.00 46 1016.6
20260506190533 61 43 5.0 10.0 0.00 0.02 0.00 48 1016.9